DW6610 Weather Reports


time (UTC)temp
C
wind
direction
speed
KPH
gust
KPH
rain 1hr
cm
rain 24hr
cm
rain mn
cm
humidity
%
barometer
mb
20260901231051 34 57 0.0 3.2 0.00 0.00 0.00 54 1016.8
20260901230554 34 153 0.0 4.8 0.00 0.00 0.00 54 1017.0
20260901230113 35 83 0.0 9.7 0.00 0.00 0.00 53 1016.8
20260901225552 35 181 1.6 9.7 0.00 0.00 0.00 52 1017.0
20260901225052 35 61 3.2 9.7 0.00 0.00 0.00 51 1016.9
20260901224559 36 279 1.6 6.4 0.00 0.00 0.00 50 1016.9
20260901224053 36 71 1.6 6.4 0.00 0.00 0.00 49 1016.8
20260901223554 36 51 1.6 6.4 0.00 0.00 0.00 49 1016.9
20260901223103 36 79 1.6 6.4 0.00 0.00 0.00 49 1016.8
20260901222552 36 44 1.6 6.4 0.00 0.00 0.00 51 1016.8
20260901222051 36 309 1.6 8.0 0.00 0.00 0.00 51 1016.9
20260901221625 36 72 3.2 8.0 0.00 0.00 0.00 51 1016.8
20260901221051 35 91 1.6 6.4 0.00 0.00 0.00 52 1016.8
20260901220553 35 103 0.0 3.2 0.00 0.00 0.00 54 1016.8
20260901220123 35 0 1.6 3.2 0.00 0.00 0.00 54 1016.8
20260901215552 35 0 0.0 4.8 0.00 0.00 0.00 54 1016.8
20260901215052 35 67 0.0 4.8 0.00 0.00 0.00 52 1016.8
20260901214603 35 87 0.0 4.8 0.00 0.00 0.00 52 1016.8
20260901214052 35 131 0.0 6.4 0.00 0.00 0.00 51 1016.8
20260901213552 36 306 1.6 6.4 0.00 0.00 0.00 49 1016.9
20260901213110 36 86 1.6 6.4 0.00 0.00 0.00 48 1016.9
20260901212551 36 53 0.0 4.8 0.00 0.00 0.00 47 1017.0
20260901212052 37 134 1.6 12.9 0.00 0.00 0.00 46 1016.9
20260901211601 37 104 3.2 12.9 0.00 0.00 0.00 47 1016.9
20260901211051 37 82 3.2 8.0 0.00 0.00 0.00 45 1017.0
20260901210551 37 79 1.6 8.0 0.00 0.00 0.00 47 1017.0
20260901210119 37 61 1.6 8.0 0.00 0.00 0.00 46 1017.1
20260901205552 37 145 1.6 8.0 0.00 0.00 0.00 46 1017.1
20260901205051 38 81 1.6 4.8 0.00 0.00 0.00 46 1017.0
20260901204623 38 119 1.6 4.8 0.00 0.00 0.00 46 1017.1
20260901204052 38 202 1.6 9.7 0.00 0.00 0.00 48 1017.1
20260901203556 37 91 3.2 9.7 0.00 0.00 0.00 49 1017.2
20260901203104 38 84 3.2 8.0 0.00 0.00 0.00 48 1017.3
20260901202551 38 127 1.6 8.0 0.00 0.00 0.00 49 1017.2
20260901202055 38 120 3.2 9.7 0.00 0.00 0.00 49 1017.4
20260901201602 38 18 4.8 11.3 0.00 0.00 0.00 48 1017.4
20260901201052 38 23 1.6 11.3 0.00 0.00 0.00 50 1017.4
20260901200553 37 77 1.6 8.0 0.00 0.00 0.00 49 1017.4
20260901200122 37 278 3.2 6.4 0.00 0.00 0.00 50 1017.4
20260901195552 36 96 1.6 4.8 0.00 0.00 0.00 51 1017.5
20260901195052 36 277 0.0 3.2 0.00 0.00 0.00 50 1017.6
20260901194612 36 0 1.6 3.2 0.00 0.00 0.00 51 1017.5
20260901194054 36 134 0.0 4.8 0.00 0.00 0.00 52 1017.6
20260901193552 36 95 1.6 4.8 0.00 0.00 0.00 52 1017.6
20260901193103 37 139 0.0 3.2 0.00 0.00 0.00 49 1017.7
20260901192557 37 103 0.0 3.2 0.00 0.00 0.00 49 1017.8
20260901192052 38 312 1.6 6.4 0.00 0.00 0.00 47 1017.8
20260901191638 38 122 1.6 6.4 0.00 0.00 0.00 49 1017.9
20260901191054 37 93 1.6 6.4 0.00 0.00 0.00 50 1017.9
20260901190552 37 79 1.6 6.4 0.00 0.00 0.00 53 1018.0
20260901190108 37 88 3.2 9.7 0.00 0.00 0.00 48 1018.1
20260901185552 37 90 3.2 9.7 0.00 0.00 0.00 57 1018.2
20260901185051 37 18 1.6 6.4 0.00 0.00 0.00 50 1018.2
20260901184606 37 82 3.2 6.4 0.00 0.00 0.00 53 1018.3
20260901184051 37 138 0.0 8.0 0.00 0.00 0.00 51 1018.3
20260901183555 37 95 1.6 8.0 0.00 0.00 0.00 49 1018.4
20260901183102 37 100 3.2 8.0 0.00 0.00 0.00 48 1018.6
20260901182553 37 80 1.6 6.4 0.00 0.00 0.00 51 1018.6
20260901182052 37 98 1.6 8.0 0.00 0.00 0.00 52 1018.7
20260901181619 37 96 3.2 9.7 0.00 0.00 0.00 50 1018.6
20260901181053 37 106 1.6 9.7 0.00 0.00 0.00 54 1018.6
20260901180552 37 6 1.6 8.0 0.00 0.00 0.00 54 1018.8
20260901180103 37 100 3.2 9.7 0.00 0.00 0.00 54 1018.9
20260901175553 36 79 1.6 9.7 0.00 0.00 0.00 52 1018.9
20260901175051 36 155 3.2 9.7 0.00 0.00 0.00 53 1019.0
20260901174605 37 136 0.0 8.0 0.00 0.00 0.00 54 1019.0
20260901174052 36 44 1.6 8.0 0.00 0.00 0.00 53 1019.2
20260901173552 37 84 1.6 4.8 0.00 0.00 0.00 56 1019.3
20260901173118 36 149 1.6 4.8 0.00 0.00 0.00 53 1019.3
20260901172554 36 0 1.6 3.2 0.00 0.00 0.00 57 1019.4
20260901172052 36 104 1.6 6.4 0.00 0.00 0.00 55 1019.4
20260901171606 36 162 1.6 6.4 0.00 0.00 0.00 53 1019.5
20260901171052 36 127 1.6 6.4 0.00 0.00 0.00 55 1019.6
20260901170553 37 79 1.6 6.4 0.00 0.00 0.00 56 1019.6
20260901170104 36 110 1.6 6.4 0.00 0.00 0.00 57 1019.7
20260901165551 36 83 3.2 6.4 0.00 0.00 0.00 54 1019.8
20260901165052 36 123 1.6 6.4 0.00 0.00 0.00 56 1019.8
20260901164628 36 106 1.6 4.8 0.00 0.00 0.00 59 1019.9
20260901164053 36 65 1.6 9.7 0.00 0.00 0.00 62 1020.0
20260901163552 35 143 1.6 9.7 0.00 0.00 0.00 63 1020.0
20260901163104 35 105 3.2 9.7 0.00 0.00 0.00 61 1020.0
20260901162551 35 138 1.6 4.8 0.00 0.00 0.00 61 1020.0
20260901162052 35 155 1.6 4.8 0.00 0.00 0.00 61 1020.1
20260901161600 35 197 1.6 8.0 0.00 0.00 0.00 61 1020.1
20260901161052 35 156 3.2 8.0 0.00 0.00 0.00 63 1020.2
20260901160552 35 114 1.6 4.8 0.00 0.00 0.00 60 1020.2
20260901160117 35 120 1.6 4.8 0.00 0.00 0.00 62 1020.1
20260901155551 35 73 1.6 9.7 0.00 0.00 0.00 63 1020.2
20260901155051 35 82 1.6 9.7 0.00 0.00 0.00 64 1020.1
20260901154605 35 122 0.0 6.4 0.00 0.00 0.00 64 1020.2
20260901154052 35 96 1.6 6.4 0.00 0.00 0.00 63 1020.3
20260901153552 34 41 0.0 8.0 0.00 0.00 0.00 67 1020.4
20260901153127 34 122 1.6 8.0 0.00 0.00 0.00 65 1020.3
20260901152551 33 113 1.6 8.0 0.00 0.00 0.00 67 1020.3
20260901152054 33 120 3.2 8.0 0.00 0.00 0.00 65 1020.3
20260901151601 33 108 1.6 6.4 0.00 0.00 0.00 70 1020.3
20260901151052 33 0 3.2 6.4 0.00 0.00 0.00 70 1020.3
20260901150552 33 128 3.2 9.7 0.00 0.00 0.00 67 1020.3
20260901150116 33 81 4.8 9.7 0.00 0.00 0.00 69 1020.3
20260901145552 33 125 1.6 6.4 0.00 0.00 0.00 68 1020.4
20260901145051 33 88 1.6 6.4 0.00 0.00 0.00 71 1020.4
20260901144602 33 99 3.2 6.4 0.00 0.00 0.00 70 1020.3
20260901144051 33 0 1.6 6.4 0.00 0.00 0.00 73 1020.2
20260901143552 32 60 1.6 6.4 0.00 0.00 0.00 71 1020.2
20260901143121 32 109 0.0 3.2 0.00 0.00 0.00 72 1020.3
20260901142552 32 94 1.6 4.8 0.00 0.00 0.00 72 1020.3
20260901142052 32 151 1.6 4.8 0.00 0.00 0.00 72 1020.3
20260901141622 32 105 0.0 1.6 0.00 0.00 0.00 73 1020.2
20260901141052 32 62 0.0 1.6 0.00 0.00 0.00 72 1020.3
20260901140551 32 81 0.0 3.2 0.00 0.00 0.00 72 1020.3
20260901140135 31 0 0.0 3.2 0.00 0.00 0.00 72 1020.4
20260901135556 32 85 0.0 3.2 0.00 0.00 0.00 70 1020.4
20260901135052 31 0 0.0 1.6 0.00 0.00 0.00 76 1020.4
20260901134601 31 67 0.0 1.6 0.00 0.00 0.00 76 1020.4
20260901134051 31 0 0.0 1.6 0.00 0.00 0.00 77 1020.4
20260901133551 30 0 0.0 3.2 0.00 0.00 0.00 78 1020.4
20260901133057 30 68 0.0 3.2 0.00 0.00 0.00 78 1020.5
20260901132553 28 0 0.0 3.2 0.00 0.00 0.00 80 1020.5
20260901132051 28 68 0.0 3.2 0.00 0.00 0.00 83 1020.4
20260901131558 27 68 1.6 3.2 0.00 0.00 0.00 84 1020.4
20260901131052 26 89 0.0 1.6 0.00 0.00 0.00 87 1020.3
20260901130552 26 0 0.0 1.6 0.00 0.00 0.00 89 1020.4
20260901130105 25 0 0.0 1.6 0.00 0.00 0.00 92 1020.3
20260901125552 25 0 0.0 1.6 0.00 0.00 0.00 94 1020.3
20260901125052 24 0 0.0 1.6 0.00 0.00 0.00 94 1020.3
20260901124601 23 0 0.0 1.6 0.00 0.00 0.00 95 1020.3
20260901124051 23 0 0.0 1.6 0.00 0.00 0.00 96 1020.2
20260901123553 23 0 0.0 0.0 0.00 0.00 0.00 96 1020.1
20260901123101 23 0 0.0 1.6 0.00 0.00 0.00 96 1020.1
20260901122552 23 0 0.0 1.6 0.00 0.00 0.00 96 1020.1
20260901122051 23 0 0.0 0.0 0.00 0.00 0.00 97 1020.0
20260901121607 22 0 0.0 0.0 0.00 0.00 0.00 97 1020.0
20260901121053 22 0 0.0 0.0 0.00 0.00 0.00 97 1019.9
20260901120550 22 0 0.0 0.0 0.00 0.00 0.00 97 1019.9
20260901120104 22 0 0.0 0.0 0.00 0.00 0.00 97 1019.8
20260901115552 22 0 0.0 0.0 0.00 0.00 0.00 97 1019.7
20260901115054 22 0 0.0 1.6 0.00 0.00 0.00 97 1019.7
20260901114602 22 0 0.0 1.6 0.00 0.00 0.00 97 1019.6
20260901114051 22 0 0.0 1.6 0.00 0.00 0.00 97 1019.5
20260901113551 22 0 0.0 1.6 0.00 0.00 0.00 97 1019.4
20260901113104 22 0 0.0 1.6 0.00 0.00 0.00 97 1019.4
20260901112551 22 0 0.0 1.6 0.00 0.00 0.00 97 1019.3
20260901112051 22 0 0.0 0.0 0.00 0.00 0.00 97 1019.3
20260901111606 22 0 0.0 1.6 0.00 0.00 0.00 97 1019.2
20260901111050 22 0 0.0 1.6 0.00 0.00 0.00 97 1019.2
20260901110552 22 0 0.0 0.0 0.00 0.00 0.00 97 1019.2
20260901110103 22 0 0.0 0.0 0.00 0.00 0.00 97 1019.1
20260901105555 22 0 0.0 1.6 0.00 0.00 0.00 97 1019.2
20260901105056 22 0 0.0 1.6 0.00 0.00 0.00 97 1019.2
20260901104604 22 0 0.0 1.6 0.00 0.00 0.00 97 1019.3
20260901104052 22 0 0.0 0.0 0.00 0.00 0.00 97 1019.1
20260901103551 22 0 0.0 0.0 0.00 0.00 0.00 97 1019.1
20260901103106 22 0 0.0 0.0 0.00 0.00 0.00 97 1019.1
20260901102552 22 0 0.0 0.0 0.00 0.00 0.00 97 1019.1
20260901102052 22 0 0.0 0.0 0.00 0.00 0.00 96 1018.9
20260901101608 22 0 0.0 0.0 0.00 0.00 0.00 97 1019.0
20260901101052 22 0 0.0 0.0 0.00 0.00 0.00 96 1018.9
20260901100553 22 0 0.0 0.0 0.00 0.00 0.00 96 1018.8
20260901100104 22 0 0.0 0.0 0.00 0.00 0.00 96 1018.8
20260901095551 22 0 0.0 0.0 0.00 0.00 0.00 96 1018.7
20260901095051 22 0 0.0 0.0 0.00 0.00 0.00 96 1018.7
20260901094602 22 0 0.0 0.0 0.00 0.00 0.00 96 1018.7
20260901094055 22 0 0.0 0.0 0.00 0.00 0.00 95 1018.6
20260901093551 23 0 0.0 0.0 0.00 0.00 0.00 95 1018.7
20260901093110 23 0 0.0 0.0 0.00 0.00 0.00 95 1018.7
20260901092553 23 0 0.0 0.0 0.00 0.00 0.00 94 1018.7
20260901092052 23 0 0.0 0.0 0.00 0.00 0.00 95 1018.7
20260901091606 23 0 0.0 0.0 0.00 0.00 0.00 94 1018.6
20260901091051 23 0 0.0 0.0 0.00 0.00 0.00 94 1018.6
20260901090551 23 0 0.0 0.0 0.00 0.00 0.00 94 1018.6
20260901090108 23 0 0.0 1.6 0.00 0.00 0.00 93 1018.6
20260901085551 23 0 0.0 1.6 0.00 0.00 0.00 93 1018.5
20260901085051 23 95 0.0 1.6 0.00 0.00 0.00 93 1018.5
20260901084605 23 94 0.0 1.6 0.00 0.00 0.00 94 1018.4
20260901084052 23 0 0.0 1.6 0.00 0.00 0.00 94 1018.5
20260901083552 23 0 0.0 1.6 0.00 0.00 0.00 94 1018.4
20260901083104 23 0 0.0 1.6 0.00 0.00 0.00 95 1018.5
20260901082551 23 95 0.0 1.6 0.00 0.00 0.00 95 1018.4
20260901082055 23 0 0.0 0.0 0.00 0.00 0.00 95 1018.3
20260901081604 23 0 0.0 0.0 0.00 0.00 0.00 95 1018.3
20260901081051 23 0 0.0 0.0 0.00 0.00 0.00 95 1018.4
20260901080551 23 0 0.0 0.0 0.00 0.00 0.00 95 1018.6
20260901080209 23 0 0.0 0.0 0.00 0.00 0.00 95 1018.6
20260901075554 23 0 0.0 0.0 0.00 0.00 0.00 95 1018.5
20260901075051 23 0 0.0 0.0 0.00 0.00 0.00 95 1018.4
20260901074601 23 0 0.0 0.0 0.00 0.00 0.00 95 1018.3
20260901074130 23 0 0.0 0.0 0.00 0.00 0.00 95 1018.4
20260901073552 23 0 0.0 0.0 0.00 0.00 0.00 95 1018.4
20260901073103 23 0 0.0 0.0 0.00 0.00 0.00 95 1018.3
20260901072551 23 0 0.0 0.0 0.00 0.00 0.00 94 1018.2
20260901072056 23 0 0.0 0.0 0.00 0.00 0.00 94 1018.3
20260901071604 23 0 0.0 1.6 0.00 0.00 0.00 94 1018.3
20260901071051 23 0 0.0 1.6 0.00 0.00 0.00 94 1018.2
20260901070551 23 0 0.0 1.6 0.00 0.00 0.00 94 1018.2
20260901070134 23 0 0.0 0.0 0.00 0.00 0.00 94 1018.2
20260901065551 23 0 0.0 0.0 0.00 0.00 0.00 94 1018.2
20260901065052 23 0 0.0 0.0 0.00 0.00 0.00 94 1018.3
20260901064610 23 0 0.0 0.0 0.00 0.00 0.00 94 1018.3
20260901064053 23 0 0.0 0.0 0.00 0.00 0.00 94 1018.3
20260901063551 24 0 0.0 0.0 0.00 0.00 0.00 93 1018.2
20260901063106 24 0 0.0 0.0 0.00 0.00 0.00 93 1018.3
20260901062552 24 0 0.0 0.0 0.00 0.00 0.00 93 1018.2
20260901062052 24 0 0.0 0.0 0.00 0.00 0.00 93 1018.3
20260901061610 24 0 0.0 0.0 0.00 0.00 0.00 93 1018.3
20260901061051 24 0 0.0 0.0 0.00 0.00 0.00 93 1018.3
20260901060555 25 0 0.0 0.0 0.00 0.00 0.00 92 1018.4
20260901060107 25 0 0.0 1.6 0.00 0.00 0.00 92 1018.4
20260901055552 25 0 0.0 1.6 0.00 0.00 0.00 92 1018.4
20260901055052 25 0 0.0 1.6 0.00 0.00 0.00 91 1018.5
20260901054607 25 0 0.0 1.6 0.00 0.00 0.00 90 1018.5
20260901054049 25 0 0.0 1.6 0.00 0.00 0.00 90 1018.5
20260901053553 25 0 0.0 0.0 0.00 0.00 0.00 89 1018.5
20260901053111 25 0 0.0 0.0 0.00 0.00 0.00 89 1018.4
20260901052551 25 0 0.0 0.0 0.00 0.00 0.00 88 1018.4
20260901052051 25 0 0.0 0.0 0.00 0.00 0.00 88 1018.4
20260901051608 25 0 0.0 0.0 0.00 0.00 0.00 88 1018.3
20260901051051 25 0 0.0 0.0 0.00 0.00 0.00 87 1018.3
20260901050551 26 0 0.0 1.6 0.00 0.00 0.00 87 1018.4
20260901050104 26 0 0.0 1.6 0.00 0.00 0.00 86 1018.4
20260901045549 26 0 0.0 1.6 0.00 0.00 0.00 85 1018.4
20260901045052 26 0 0.0 0.0 0.00 0.00 0.00 84 1018.3
20260901044620 26 0 0.0 1.6 0.00 0.00 0.00 83 1018.3
20260901044051 26 0 0.0 1.6 0.00 0.00 0.00 83 1018.2
20260901043552 26 95 0.0 1.6 0.00 0.00 0.00 83 1018.2
20260901043104 26 95 0.0 1.6 0.00 0.00 0.00 83 1018.2
20260901042552 26 0 0.0 1.6 0.00 0.00 0.00 83 1018.2
20260901042051 26 0 0.0 1.6 0.00 0.00 0.00 82 1018.2
20260901041559 26 0 0.0 3.2 0.00 0.00 0.00 82 1018.3
20260901041052 26 0 0.0 3.2 0.00 0.00 0.00 83 1018.2
20260901040551 26 0 0.0 1.6 0.00 0.00 0.00 84 1018.1
20260901040108 26 77 0.0 1.6 0.00 0.00 0.00 85 1018.2
20260901035552 26 0 0.0 1.6 0.00 0.00 0.00 86 1018.1
20260901035052 26 0 0.0 0.0 0.00 0.00 0.00 86 1018.1
20260901034601 26 0 0.0 0.0 0.00 0.00 0.00 87 1018.1
20260901034053 26 0 0.0 0.0 0.00 0.00 0.00 86 1018.0
20260901033551 26 0 0.0 0.0 0.00 0.00 0.00 86 1018.0
20260901033103 26 0 0.0 1.6 0.00 0.00 0.00 85 1018.0
20260901032553 26 0 0.0 1.6 0.00 0.00 0.00 85 1018.0
20260901032050 27 0 0.0 1.6 0.00 0.00 0.00 85 1018.0
20260901031604 27 0 0.0 1.6 0.00 0.00 0.00 84 1018.0
20260901031051 27 0 0.0 1.6 0.00 0.00 0.00 83 1018.0
20260901030554 27 0 0.0 0.0 0.00 0.00 0.00 82 1017.9
20260901030105 27 0 0.0 0.0 0.00 0.00 0.00 81 1017.9
20260901025553 27 0 0.0 0.0 0.00 0.00 0.00 81 1017.9
20260901025053 27 0 0.0 0.0 0.00 0.00 0.00 80 1018.0
20260901024605 28 0 0.0 0.0 0.00 0.00 0.00 79 1017.9
20260901024053 28 0 0.0 0.0 0.00 0.00 0.00 76 1017.9
20260901023551 28 0 0.0 1.6 0.00 0.00 0.00 74 1018.0
20260901023102 28 0 0.0 1.6 0.00 0.00 0.00 73 1017.9
20260901022551 28 76 0.0 1.6 0.00 0.00 0.00 73 1017.7
20260901022051 28 0 0.0 1.6 0.00 0.00 0.00 73 1017.7
20260901021613 28 0 0.0 1.6 0.00 0.00 0.00 73 1017.8
20260901021052 28 0 0.0 1.6 0.00 0.00 0.00 74 1017.7
20260901020552 28 76 0.0 1.6 0.00 0.00 0.00 74 1017.7
20260901020104 28 0 0.0 1.6 0.00 0.00 0.00 74 1017.5
20260901015552 28 0 0.0 1.6 0.00 0.00 0.00 74 1017.5
20260901015051 28 0 0.0 1.6 0.00 0.00 0.00 74 1017.4
20260901014604 29 75 0.0 1.6 0.00 0.00 0.00 73 1017.4
20260901014052 29 0 0.0 3.2 0.00 0.00 0.00 72 1017.4
20260901013552 29 0 0.0 3.2 0.00 0.00 0.00 72 1017.3
20260901013119 29 0 0.0 1.6 0.00 0.00 0.00 72 1017.2
20260901012553 30 0 0.0 1.6 0.00 0.00 0.00 71 1017.2
20260901012051 30 86 0.0 1.6 0.00 0.00 0.00 70 1017.2
20260901011600 30 0 0.0 1.6 0.00 0.00 0.00 68 1017.2
20260901011052 30 0 0.0 1.6 0.00 0.00 0.00 67 1017.1
20260901010553 30 0 0.0 1.6 0.00 0.00 0.00 65 1017.1
20260901010056 31 0 0.0 1.6 0.00 0.00 0.00 64 1017.0
20260901005552 31 0 0.0 1.6 0.00 0.00 0.00 64 1017.0
20260901005050 31 0 0.0 1.6 0.00 0.00 0.00 63 1017.0
20260901004608 31 0 0.0 1.6 0.00 0.00 0.00 62 1016.8
20260901004052 31 0 0.0 1.6 0.00 0.00 0.00 61 1016.8
20260901003552 32 0 0.0 1.6 0.00 0.00 0.00 61 1016.8
20260901003104 32 0 0.0 1.6 0.00 0.00 0.00 59 1016.8
20260901002552 32 0 0.0 4.8 0.00 0.00 0.00 58 1016.8
20260901002053 32 86 0.0 4.8 0.00 0.00 0.00 57 1016.8
20260901001605 33 0 0.0 4.8 0.00 0.00 0.00 56 1016.8
20260901001055 33 0 0.0 3.2 0.00 0.00 0.00 55 1016.9
20260901000551 33 0 1.6 3.2 0.00 0.00 0.00 55 1017.0
20260901000107 33 0 0.0 4.8 0.00 0.00 0.00 54 1016.9
20260831235552 33 85 0.0 4.8 0.00 0.00 0.00 53 1016.9
20260831235056 34 45 1.6 4.8 0.00 0.00 0.00 52 1017.0
20260831234602 34 0 0.0 6.4 0.00 0.00 0.00 51 1017.0
20260831234052 35 108 1.6 6.4 0.00 0.00 0.00 51 1017.0
20260831233551 35 0 0.0 3.2 0.00 0.00 0.00 50 1017.1
20260831233104 36 263 0.0 6.4 0.00 0.00 0.00 49 1017.2
20260831232551 36 79 1.6 6.4 0.00 0.00 0.00 48 1017.1
20260831232051 36 82 1.6 8.0 0.00 0.00 0.00 48 1017.2
20260831231632 36 283 0.0 8.0 0.00 0.00 0.00 48 1017.2